GW3994 Weather Reports


Display with metric or nautical units.
time (UTC)temp
F
wind
direction
speed
MPH
gust
MPH
rain 1hr
in
rain 24hr
in
rain mn
in
humidity
%
barometer
mb
20260903051439 0 0.0 0.0 0.00 0.00 0.00 1016.0
20260903050935 0 0.0 0.0 0.00 0.00 0.00 1016.0
20260903050434 0 0.0 0.0 0.00 0.00 0.00 1016.0
20260903045934 0 0.0 0.0 0.00 0.00 0.00 1016.0
20260903045429 0 0.0 0.0 0.00 0.00 0.00 1016.0
20260903044926 0 0.0 0.0 0.00 0.00 0.00 1016.0
20260903044421 0 0.0 0.0 0.00 0.00 0.00 1016.0
20260903043918 0 0.0 0.0 0.00 0.00 0.00 1016.0
20260903043413 0 0.0 0.0 0.00 0.00 0.00 1016.0
20260903042911 0 0.0 0.0 0.00 0.00 0.00 1016.0
20260903042407 0 0.0 0.0 0.00 0.00 0.00 1016.0
20260903041902 0 0.0 0.0 0.00 0.00 0.00 1016.0
20260903041359 0 0.0 0.0 0.00 0.00 0.00 1016.0
20260903040854 0 0.0 0.0 0.00 0.00 0.00 1016.0
20260903040353 0 0.0 0.0 0.00 0.00 0.00 1016.0
20260903035849 0 0.0 0.0 0.00 0.00 0.00 1016.0
20260903035345 0 0.0 0.0 0.00 0.00 0.00 1016.0
20260903034839 0 0.0 0.0 0.00 0.00 0.00 1016.0
20260903034335 0 0.0 0.0 0.00 0.00 0.00 1016.0
20260903033829 0 0.0 0.0 0.00 0.00 0.00 1016.0
20260903033324 0 0.0 0.0 0.00 0.00 0.00 1016.0
20260903032819 0 0.0 0.0 0.00 0.00 0.00 1016.0
20260903032315 0 0.0 0.0 0.00 0.00 0.00 1016.0
20260903031810 0 0.0 0.0 0.00 0.00 0.00 1016.0
20260903031309 0 0.0 0.0 0.00 0.00 0.00 1016.0
20260903030805 0 0.0 0.0 0.00 0.00 0.00 1016.0
20260903030301 0 0.0 0.0 0.00 0.00 0.00 1016.0
20260903025756 0 0.0 0.0 0.00 0.00 0.00 1016.0
20260903025252 0 0.0 0.0 0.00 0.00 0.00 1016.0
20260903024751 0 0.0 0.0 0.00 0.00 0.00 1016.0
20260903024251 0 0.0 0.0 0.00 0.00 0.00 1016.0
20260903023747 0 0.0 0.0 0.00 0.00 0.00 1016.0
20260903023243 0 0.0 0.0 0.00 0.00 0.00 1016.0
20260903022742 0 0.0 0.0 0.00 0.00 0.00 1016.0
20260903022241 0 0.0 0.0 0.00 0.00 0.00 1016.0
20260903021736 0 0.0 0.0 0.00 0.00 0.00 1016.0
20260903021231 0 0.0 0.0 0.00 0.00 0.00 1016.0
20260903020725 0 0.0 0.0 0.00 0.00 0.00 1016.0
20260903020220 0 12 3.0 3.0 0.00 0.00 0.00 1016.0
20260903015715 0 12 3.0 3.0 0.00 0.00 0.00 1016.0
20260903015211 0 12 3.0 3.0 0.00 0.00 0.00 1016.0
20260903014707 0 12 0.0 0.0 0.00 0.00 0.00 1016.0
20260903014205 0 12 1.0 1.0 0.00 0.00 0.00 1016.0
20260903013700 0 12 1.0 1.0 0.00 0.00 0.00 1016.0
20260903013200 0 12 2.0 2.0 0.00 0.00 0.00 1016.0
20260903012658 0 12 2.0 2.0 0.00 0.00 0.00 1016.4
20260903012158 0 12 0.0 0.0 0.00 0.00 0.00 1016.4
20260903011652 0 12 0.0 0.0 0.00 0.00 0.00 1016.4
20260903011146 0 12 0.0 0.0 0.00 0.00 0.00 1016.0
20260903010642 0 12 0.0 0.0 0.00 0.00 0.00 1016.0
20260903010141 0 12 0.0 0.0 0.00 0.00 0.00 1016.0
20260903005640 0 12 0.0 0.0 0.00 0.00 0.00 1015.7
20260903005136 0 12 2.0 2.0 0.00 0.00 0.00 1015.7
20260903004631 0 216 1.0 1.0 0.00 0.00 0.00 1015.7
20260903004125 0 240 1.0 1.0 0.00 0.00 0.00 1015.7
20260903003621 0 174 1.0 1.0 0.00 0.00 0.00 1015.7
20260903003117 0 103 0.0 0.0 0.00 0.00 0.00 1015.7
20260903002612 0 198 0.0 0.0 0.00 0.00 0.00 1015.4
20260903002112 0 291 4.0 4.0 0.00 0.00 0.00 1015.4
20260903001607 0 213 4.0 4.0 0.00 0.00 0.00 1015.4
20260903001100 0 227 3.0 4.0 0.00 0.00 0.00 1015.7
20260903000556 0 324 2.0 2.0 0.00 0.00 0.00 1015.7
20260903000055 0 231 2.0 2.0 0.00 0.00 0.00 1015.7
20260902235549 0 294 2.0 2.0 0.00 0.00 0.00 1015.7
20260902235044 0 204 2.0 2.0 0.00 0.00 0.00 1015.7
20260902234538 0 121 2.0 2.0 0.00 0.00 0.00 1015.4
20260902234037 0 50 0.0 0.0 0.00 0.00 0.00 1015.4
20260902233532 0 210 2.0 2.0 0.00 0.00 0.00 1015.4
20260902233026 0 188 1.0 1.0 0.00 0.00 0.00 1015.4
20260902232526 0 240 6.0 6.0 0.00 0.00 0.00 1015.4
20260902232014 0 246 4.0 4.0 0.00 0.00 0.00 1015.4
20260902231509 0 188 7.0 7.0 0.00 0.00 0.00 1015.4
20260902231004 0 259 5.0 6.0 0.00 0.00 0.00 1015.4
20260902230503 0 318 5.0 5.0 0.00 0.00 0.00 1015.4
20260902225956 0 192 4.0 4.0 0.00 0.00 0.00 1015.4
20260902225451 0 198 4.0 4.0 0.00 0.00 0.00 1015.4
20260902224951 0 198 7.0 8.0 0.00 0.00 0.00 1015.4
20260902224445 0 250 3.0 3.0 0.00 0.00 0.00 1015.4
20260902223942 0 198 5.0 5.0 0.00 0.00 0.00 1015.4
20260902223437 0 231 4.0 5.0 0.00 0.00 0.00 1015.4
20260902222936 0 252 2.0 2.0 0.00 0.00 0.00 1015.7
20260902222434 0 276 4.0 4.0 0.00 0.00 0.00 1015.7
20260902221929 0 252 6.0 7.0 0.00 0.00 0.00 1015.7
20260902221428 0 222 2.0 2.0 0.00 0.00 0.00 1015.7
20260902220923 0 258 6.0 6.0 0.00 0.00 0.00 1015.7
20260902220417 0 252 6.0 6.0 0.00 0.00 0.00 1015.7
20260902215913 0 198 7.0 9.0 0.00 0.00 0.00 1015.7
20260902215408 0 192 6.0 6.0 0.00 0.00 0.00 1015.7
20260902214905 0 198 4.0 4.0 0.00 0.00 0.00 1015.7
20260902214403 0 284 5.0 6.0 0.00 0.00 0.00 1015.7
20260902213902 0 180 4.0 4.0 0.00 0.00 0.00 1015.7
20260902213359 0 222 2.0 2.0 0.00 0.00 0.00 1015.7
20260902212857 0 232 6.0 6.0 0.00 0.00 0.00 1015.7
20260902212354 0 284 10.0 11.0 0.00 0.00 0.00 1015.7
20260902211850 0 240 3.0 4.0 0.00 0.00 0.00 1015.7
20260902211346 0 162 6.0 6.0 0.00 0.00 0.00 1016.0
20260902210841 0 162 5.0 6.0 0.00 0.00 0.00 1016.0
20260902210340 0 285 4.0 4.0 0.00 0.00 0.00 1016.0
20260902205839 0 210 2.0 2.0 0.00 0.00 0.00 1016.4
20260902205328 0 198 6.0 6.0 0.00 0.00 0.00 1016.4
20260902204823 0 174 3.0 3.0 0.00 0.00 0.00 1016.4
20260902204318 0 240 7.0 8.0 0.00 0.00 0.00 1016.4
20260902203813 0 226 7.0 7.0 0.00 0.00 0.00 1016.4
20260902203308 0 204 5.0 5.0 0.00 0.00 0.00 1016.4
20260902202803 0 198 6.0 6.0 0.00 0.00 0.00 1016.4
20260902202259 0 222 6.0 7.0 0.00 0.00 0.00 1016.4
20260902201756 0 96 8.0 10.0 0.00 0.00 0.00 1016.4
20260902201255 0 148 4.0 4.0 0.00 0.00 0.00 1016.4
20260902200750 0 234 7.0 7.0 0.00 0.00 0.00 1016.4
20260902200245 0 132 3.0 4.0 0.00 0.00 0.00 1016.4
20260902195741 0 257 6.0 6.0 0.00 0.00 0.00 1016.4
20260902195240 0 216 1.0 1.0 0.00 0.00 0.00 1016.4
20260902194735 0 225 5.0 6.0 0.00 0.00 0.00 1016.4
20260902194230 0 28 11.0 13.0 0.00 0.00 0.00 1016.7
20260902193725 0 198 7.0 8.0 0.00 0.00 0.00 1016.7
20260902193220 0 240 5.0 5.0 0.00 0.00 0.00 1016.7
20260902192718 0 245 5.0 6.0 0.00 0.00 0.00 1016.7
20260902192212 0 258 6.0 7.0 0.00 0.00 0.00 1016.7
20260902191707 0 228 5.0 5.0 0.00 0.00 0.00 1016.7
20260902191201 0 252 2.0 2.0 0.00 0.00 0.00 1017.0
20260902190657 0 216 10.0 10.0 0.00 0.00 0.00 1017.0
20260902190152 0 204 6.0 6.0 0.00 0.00 0.00 1017.0
20260902185647 0 180 0.0 0.0 0.00 0.00 0.00 1017.0
20260902185143 0 240 5.0 6.0 0.00 0.00 0.00 1017.0
20260902184638 0 195 7.0 8.0 0.00 0.00 0.00 1017.0
20260902184133 0 198 6.0 6.0 0.00 0.00 0.00 1017.0
20260902183629 0 214 2.0 2.0 0.00 0.00 0.00 1017.0
20260902183126 0 192 8.0 9.0 0.00 0.00 0.00 1017.0
20260902182621 0 260 9.0 10.0 0.00 0.00 0.00 1017.4
20260902182118 0 54 2.0 2.0 0.00 0.00 0.00 1017.4
20260902181614 0 182 6.0 6.0 0.00 0.00 0.00 1017.4
20260902181112 0 186 3.0 4.0 0.00 0.00 0.00 1017.4
20260902180607 0 290 5.0 5.0 0.00 0.00 0.00 1017.4
20260902175603 0 266 3.0 3.0 0.00 0.00 0.00 1017.7
20260902175058 0 228 2.0 2.0 0.00 0.00 0.00 1017.7
20260902174555 0 216 5.0 6.0 0.00 0.00 0.00 1017.7
20260902174050 0 192 6.0 6.0 0.00 0.00 0.00 1017.7
20260902173549 0 226 3.0 4.0 0.00 0.00 0.00 1017.7
20260902173045 0 250 3.0 3.0 0.00 0.00 0.00 1017.7
20260902172539 0 228 7.0 8.0 0.00 0.00 0.00 1017.7
20260902172034 0 270 6.0 6.0 0.00 0.00 0.00 1017.7
20260902171530 0 169 6.0 6.0 0.00 0.00 0.00 1018.5
20260902171026 0 210 1.0 1.0 0.00 0.00 0.00 1018.5
20260902170526 0 198 4.0 4.0 0.00 0.00 0.00 1018.5
20260902170022 0 198 6.0 6.0 0.00 0.00 0.00 1018.5
20260902165521 0 198 6.0 6.0 0.00 0.00 0.00 1018.5
20260902165016 0 222 2.0 2.0 0.00 0.00 0.00 1018.5
20260902164511 0 330 6.0 6.0 0.00 0.00 0.00 1018.8
20260902164010 0 210 3.0 3.0 0.00 0.00 0.00 1018.8
20260902163506 0 162 3.0 3.0 0.00 0.00 0.00 1018.8
20260902163004 0 204 4.0 4.0 0.00 0.00 0.00 1018.5
20260902162458 0 306 4.0 4.0 0.00 0.00 0.00 1018.5
20260902161958 0 300 2.0 2.0 0.00 0.00 0.00 1018.5
20260902161453 0 240 4.0 4.0 0.00 0.00 0.00 1018.5
20260902160949 0 216 4.0 4.0 0.00 0.00 0.00 1018.5
20260902160445 0 234 4.0 4.0 0.00 0.00 0.00 1018.5
20260902155942 0 232 2.0 2.0 0.00 0.00 0.00 1018.5
20260902155438 0 300 5.0 5.0 0.00 0.00 0.00 1018.5
20260902154931 0 180 2.0 2.0 0.00 0.00 0.00 1018.5
20260902154427 0 276 3.0 3.0 0.00 0.00 0.00 1018.5
20260902153922 0 252 5.0 6.0 0.00 0.00 0.00 1018.5
20260902153420 0 278 2.0 2.0 0.00 0.00 0.00 1018.5
20260902152915 0 228 5.0 6.0 0.00 0.00 0.00 1018.5
20260902152406 0 192 5.0 5.0 0.00 0.00 0.00 1018.5
20260902151901 0 222 4.0 4.0 0.00 0.00 0.00 1018.5
20260902151356 0 251 4.0 4.0 0.00 0.00 0.00 1018.5
20260902150851 0 276 1.0 1.0 0.00 0.00 0.00 1018.5
20260902150347 0 237 5.0 5.0 0.00 0.00 0.00 1018.5
20260902145847 0 216 4.0 4.0 0.00 0.00 0.00 1018.5
20260902145342 0 270 3.0 4.0 0.00 0.00 0.00 1018.5
20260902144837 0 208 6.0 6.0 0.00 0.00 0.00 1018.5
20260902144333 0 228 6.0 6.0 0.00 0.00 0.00 1018.2
20260902143828 0 252 3.0 4.0 0.00 0.00 0.00 1018.2
20260902143327 0 162 5.0 5.0 0.00 0.00 0.00 1018.2
20260902142823 0 228 4.0 5.0 0.00 0.00 0.00 1018.5
20260902142319 0 188 7.0 9.0 0.00 0.00 0.00 1018.5
20260902141814 0 188 5.0 6.0 0.00 0.00 0.00 1018.5
20260902141310 0 270 3.0 3.0 0.00 0.00 0.00 1018.5
20260902140809 0 188 4.0 4.0 0.00 0.00 0.00 1018.5
20260902140305 0 0 7.0 8.0 0.00 0.00 0.00 1018.5
20260902135803 0 0 3.0 4.0 0.00 0.00 0.00 1018.2
20260902135300 0 0 2.0 2.0 0.00 0.00 0.00 1018.2
20260902134759 0 0 4.0 5.0 0.00 0.00 0.00 1018.2
20260902134255 0 0 3.0 3.0 0.00 0.00 0.00 1018.2
20260902133750 0 0 6.0 7.0 0.00 0.00 0.00 1018.2
20260902133249 0 0 5.0 6.0 0.00 0.00 0.00 1018.2
20260902132744 0 0 3.0 3.0 0.00 0.00 0.00 1018.5
20260902132240 0 0 5.0 5.0 0.00 0.00 0.00 1018.5
20260902131736 0 0 5.0 5.0 0.00 0.00 0.00 1018.5
20260902131232 0 0 2.0 2.0 0.00 0.00 0.00 1018.2
20260902130731 0 0 5.0 5.0 0.00 0.00 0.00 1018.2
20260902130227 0 0 6.0 6.0 0.00 0.00 0.00 1018.2
20260902125723 0 0 6.0 6.0 0.00 0.00 0.00 1018.5
20260902125219 0 0 2.0 2.0 0.00 0.00 0.00 1018.5
20260902124715 0 0 3.0 4.0 0.00 0.00 0.00 1018.5
20260902124210 0 0 5.0 5.0 0.00 0.00 0.00 1018.5
20260902123705 0 0 2.0 2.0 0.00 0.00 0.00 1018.5
20260902123201 0 0 4.0 4.0 0.00 0.00 0.00 1018.5
20260902122659 0 0 1.0 1.0 0.00 0.00 0.00 1018.2
20260902122155 0 0.0 0.0 0.00 0.00 0.00 1016.7
20260902121650 0 0.0 0.0 0.00 0.00 0.00 1016.7
20260902121145 0 0.0 0.0 0.00 0.00 0.00 1016.7
20260902120641 0 0.0 0.0 0.00 0.00 0.00 1016.7
20260902120137 0 0.0 0.0 0.00 0.00 0.00 1016.7
20260902115631 0 0.0 0.0 0.00 0.00 0.00 1016.7
20260902115127 0 0.0 0.0 0.00 0.00 0.00 1016.7
20260902114623 0 0.0 0.0 0.00 0.00 0.00 1016.7
20260902114123 0 0.0 0.0 0.00 0.00 0.00 1016.7
20260902113614 0 0.0 0.0 0.00 0.00 0.00 1016.7
20260902113108 0 0.0 0.0 0.00 0.00 0.00 1016.7
20260902112603 0 0.0 0.0 0.00 0.00 0.00 1016.7
20260902112101 0 0.0 0.0 0.00 0.00 0.00 1016.7
20260902111556 0 0.0 0.0 0.00 0.00 0.00 1016.7
20260902111051 0 0.0 0.0 0.00 0.00 0.00 1016.7
20260902110548 0 0.0 0.0 0.00 0.00 0.00 1016.7
20260902110043 0 0.0 0.0 0.00 0.00 0.00 1016.7
20260902105537 0 0.0 0.0 0.00 0.00 0.00 1016.7
20260902105032 0 0.0 0.0 0.00 0.00 0.00 1016.7
20260902104527 0 0.0 0.0 0.00 0.00 0.00 1016.7
20260902104027 0 0.0 0.0 0.00 0.00 0.00 1016.7
20260902103522 0 0.0 0.0 0.00 0.00 0.00 1016.7
20260902103018 0 0.0 0.0 0.00 0.00 0.00 1016.7
20260902102514 0 0.0 0.0 0.00 0.00 0.00 1016.7
20260902102011 0 0.0 0.0 0.00 0.00 0.00 1016.7
20260902101506 0 0.0 0.0 0.00 0.00 0.00 1016.7
20260902101005 0 0.0 0.0 0.00 0.00 0.00 1016.7
20260902100459 0 0.0 0.0 0.00 0.00 0.00 1016.7
20260902095954 0 0.0 0.0 0.00 0.00 0.00 1016.7
20260902095448 0 0.0 0.0 0.00 0.00 0.00 1016.7
20260902094948 0 0.0 0.0 0.00 0.00 0.00 1016.7
20260902094443 0 0.0 0.0 0.00 0.00 0.00 1016.7
20260902093938 0 0.0 0.0 0.00 0.00 0.00 1016.7
20260902093433 0 0.0 0.0 0.00 0.00 0.00 1016.7
20260902092932 0 0.0 0.0 0.00 0.00 0.00 1016.7
20260902092428 0 0.0 0.0 0.00 0.00 0.00 1016.7
20260902091928 0 0.0 0.0 0.00 0.00 0.00 1016.7
20260902091423 0 0.0 0.0 0.00 0.00 0.00 1016.7
20260902090920 0 0.0 0.0 0.00 0.00 0.00 1016.7
20260902090420 0 0.0 0.0 0.00 0.00 0.00 1016.7
20260902085918 0 0.0 0.0 0.00 0.00 0.00 1016.7
20260902085414 0 0.0 0.0 0.00 0.00 0.00 1016.7
20260902084909 0 0.0 0.0 0.00 0.00 0.00 1016.7
20260902084405 0 0.0 0.0 0.00 0.00 0.00 1016.7
20260902083900 0 0.0 0.0 0.00 0.00 0.00 1016.7
20260902083355 0 0.0 0.0 0.00 0.00 0.00 1016.7
20260902082850 0 0.0 0.0 0.00 0.00 0.00 1016.7
20260902082346 0 0.0 0.0 0.00 0.00 0.00 1016.7
20260902081842 0 0.0 0.0 0.00 0.00 0.00 1016.7
20260902081338 0 0.0 0.0 0.00 0.00 0.00 1016.7
20260902080833 0 0.0 0.0 0.00 0.00 0.00 1016.7
20260902080329 0 0.0 0.0 0.00 0.00 0.00 1016.7
20260902075829 0 0.0 0.0 0.00 0.00 0.00 1016.7
20260902075325 0 0.0 0.0 0.00 0.00 0.00 1016.7
20260902074820 0 0.0 0.0 0.00 0.00 0.00 1016.7
20260902074316 0 0.0 0.0 0.00 0.00 0.00 1016.7
20260902073816 0 0.0 0.0 0.00 0.00 0.00 1016.7
20260902073312 0 0.0 0.0 0.00 0.00 0.00 1016.7
20260902072808 0 0.0 0.0 0.00 0.00 0.00 1016.7
20260902072309 0 0.0 0.0 0.00 0.00 0.00 1016.7
20260902071800 0 0.0 0.0 0.00 0.00 0.00 1016.7
20260902071254 0 0.0 0.0 0.00 0.00 0.00 1016.7
20260902070751 0 0.0 0.0 0.00 0.00 0.00 1016.7
20260902070250 0 0.0 0.0 0.00 0.00 0.00 1016.7
20260902065749 0 0.0 0.0 0.00 0.00 0.00 1016.7
20260902065245 0 0.0 0.0 0.00 0.00 0.00 1016.7
20260902064740 0 0.0 0.0 0.00 0.00 0.00 1016.7
20260902064236 0 0.0 0.0 0.00 0.00 0.00 1016.7
20260902063731 0 0.0 0.0 0.00 0.00 0.00 1016.7
20260902063226 0 0.0 0.0 0.00 0.00 0.00 1016.7
20260902062720 0 0.0 0.0 0.00 0.00 0.00 1016.7
20260902062215 0 0.0 0.0 0.00 0.00 0.00 1016.7
20260902061714 0 0.0 0.0 0.00 0.00 0.00 1016.7
20260902061209 0 0.0 0.0 0.00 0.00 0.00 1016.7
20260902060706 0 0.0 0.0 0.00 0.00 0.00 1016.7
20260902060202 0 0.0 0.0 0.00 0.00 0.00 1016.7
20260902055657 0 0.0 0.0 0.00 0.00 0.00 1016.7
20260902055153 0 0.0 0.0 0.00 0.00 0.00 1016.7
20260902054648 0 0.0 0.0 0.00 0.00 0.00 1016.7
20260902054144 0 0.0 0.0 0.00 0.00 0.00 1016.7
20260902053639 0 0.0 0.0 0.00 0.00 0.00 1016.7
20260902053139 0 0.0 0.0 0.00 0.00 0.00 1016.7
20260902052633 0 0.0 0.0 0.00 0.00 0.00 1016.7
20260902052129 0 0.0 0.0 0.00 0.00 0.00 1016.7